Woensdrecht, Netherlands

1:07 PM CEST on May 29, 2017 (GMT +0200)
Woensdrecht Air Base

Weather History for EHWO - December, 2013

Change the Weather History Date:

Friday, December 6, 2013

  Actual Average Record
Temperature  
Mean Temperature 40 °F -  
Max Temperature 42 °F 42 °F 55 °F (2000)
Min Temperature 39 °F 34 °F 23 °F (2016)
Degree Days  
Heating Degree Days 24    
Moisture  
Dew Point 29 °F    
Average Humidity 64    
Maximum Humidity 75    
Minimum Humidity 57    
Precipitation  
Precipitation 0.00 in - - ()
Sea Level Pressure  
Sea Level Pressure 30.19 in    
Wind  
Wind Speed 17 mph ()    
Max Wind Speed 22 mph    
Max Gust Speed 37 mph    
Visibility 6.2 miles    
Events Rain    
Averages and records for this station are not official NWS values.
T = Trace of Precipitation, MM = Missing Value Source: Averaged Metar Reports

Daily Weather History Graph

Daily Weather History Graph

Search for Another Location

Airport or City:

Trip Planner

Search our weather history database for the weather conditions in past years. The results will help you decide how hot, cold, wet, or windy it might be!

Date:

Astronomy

Dec. 06, 2013 Rise Set
Actual Time 8:32 AM CET 4:34 PM CET
Civil Twilight 7:52 AM CET 5:14 PM CET
Nautical Twilight 7:10 AM CET 5:57 PM CET
Astronomical Twilight 6:29 AM CET 6:37 PM CET
Moon 11:11 AM CET (12/6) 9:05 PM CET (12/6)
Length of Visible Light 9h 21m
Length of Day
8h 02m
Waxing Crescent, 17% of the Moon is Illuminated
Dec 6
Waxing Crescent
Dec 9
First Quarter
Dec 17
Full
Dec 25
Last Quarter
Jan 1
New

Hourly Weather History & Observations

Time (CET) Temp. Windchill Dew Point Humidity Pressure Visibility Wind Dir Wind Speed Gust Speed Precip Events Conditions
12:25 AM 42.8 °F 35.4 °F 32.0 °F 66% 30.06 in 6.2 mi West 15.0 mph - N/A   Mostly Cloudy
12:55 AM 42.8 °F 34.8 °F 30.2 °F 61% 30.06 in 6.2 mi WNW 17.3 mph - N/A   Overcast
1:25 AM 41.0 °F 32.2 °F 30.2 °F 65% 30.06 in 6.2 mi West 18.4 mph - N/A   Partly Cloudy
1:55 AM 41.0 °F 31.6 °F 30.2 °F 65% 30.06 in 6.2 mi West 20.7 mph - N/A   Scattered Clouds
2:25 AM 42.8 °F 34.3 °F 30.2 °F 61% 30.06 in 6.2 mi West 19.6 mph 35.7 mph N/A   Mostly Cloudy
2:55 AM 42.8 °F 34.3 °F 28.4 °F 57% 30.09 in 6.2 mi WNW 19.6 mph 31.1 mph N/A   Mostly Cloudy
3:25 AM 41.0 °F 31.4 °F 26.6 °F 57% 30.09 in 6.2 mi WNW 21.9 mph 36.8 mph N/A   Scattered Clouds
3:55 AM 41.0 °F 31.4 °F 28.4 °F 61% 30.09 in 6.2 mi WNW 21.9 mph 33.4 mph N/A   Partly Cloudy
4:25 AM 41.0 °F 32.2 °F 26.6 °F 57% 30.09 in 6.2 mi WNW 18.4 mph - N/A   Partly Cloudy
4:55 AM 41.0 °F 31.4 °F 26.6 °F 57% 30.09 in 6.2 mi WNW 21.9 mph - N/A   Partly Cloudy
5:25 AM 41.0 °F 32.2 °F 28.4 °F 61% 30.09 in 6.2 mi WNW 18.4 mph - N/A   Mostly Cloudy
5:55 AM 41.0 °F 32.2 °F 26.6 °F 57% 30.12 in 6.2 mi WNW 18.4 mph - N/A   Scattered Clouds
6:25 AM 39.2 °F 30.2 °F 26.6 °F 61% 30.12 in 6.2 mi WNW 17.3 mph - N/A   Scattered Clouds
6:55 AM 39.2 °F 30.2 °F 26.6 °F 61% 30.12 in 6.2 mi WNW 17.3 mph 29.9 mph N/A   Mostly Cloudy
7:25 AM 39.2 °F 29.6 °F 28.4 °F 65% 30.12 in 6.2 mi WNW 19.6 mph - N/A   Scattered Clouds
7:28 AM 39.2 °F 29.8 °F 28.4 °F 65% 30.12 in 6.2 mi WNW 18.4 mph - N/A   Mostly Cloudy
7:55 AM 39.2 °F 29.6 °F 28.4 °F 65% 30.15 in 6.2 mi WNW 19.6 mph - N/A   Scattered Clouds
8:25 AM 39.2 °F 29.8 °F 28.4 °F 65% 30.15 in 6.2 mi WNW 18.4 mph 31.1 mph N/A   Mostly Cloudy
8:55 AM 41.0 °F 31.9 °F 28.4 °F 61% 30.15 in 6.2 mi WNW 19.6 mph 34.5 mph N/A   Mostly Cloudy
9:25 AM 41.0 °F 32.2 °F 28.4 °F 61% 30.15 in 6.2 mi WNW 18.4 mph 31.1 mph N/A   Mostly Cloudy
9:55 AM 41.0 °F 31.6 °F 28.4 °F 61% 30.18 in 6.2 mi WNW 20.7 mph 34.5 mph N/A   Mostly Cloudy
10:25 AM 41.0 °F 31.6 °F 28.4 °F 61% 30.18 in 6.2 mi WNW 20.7 mph - N/A   Mostly Cloudy
10:36 AM 41.0 °F 31.9 °F 28.4 °F 61% 30.18 in 6.2 mi WNW 19.6 mph 31.1 mph N/A   Mostly Cloudy
10:37 AM 41.0 °F 31.9 °F 30.2 °F 65% 30.18 in 6.2 mi WNW 19.6 mph 31.1 mph N/A   Mostly Cloudy
10:39 AM 41.0 °F 31.6 °F 30.2 °F 65% 30.18 in 6.2 mi WNW 20.7 mph - N/A   Mostly Cloudy
10:55 AM 41.0 °F 31.9 °F 30.2 °F 65% 30.18 in 6.2 mi WNW 19.6 mph - N/A   Mostly Cloudy
11:25 AM 41.0 °F 31.6 °F 30.2 °F 65% 30.18 in 6.2 mi WNW 20.7 mph - N/A   Mostly Cloudy
11:55 AM 42.8 °F 34.3 °F 30.2 °F 61% 30.18 in 6.2 mi WNW 19.6 mph - N/A   Scattered Clouds
12:25 PM 42.8 °F 34.3 °F 30.2 °F 61% 30.18 in 6.2 mi West 19.6 mph 34.5 mph N/A   Partly Cloudy
12:55 PM 41.0 °F 32.2 °F 30.2 °F 65% 30.21 in 6.2 mi WNW 18.4 mph 34.5 mph N/A   Unknown
1:25 PM 42.8 °F 34.5 °F 32.0 °F 66% 30.21 in 6.2 mi WNW 18.4 mph 32.2 mph N/A   Mostly Cloudy
1:55 PM 41.0 °F 31.6 °F 30.2 °F 65% 30.21 in 6.2 mi WNW 20.7 mph 35.7 mph N/A   Partly Cloudy
1:59 PM 41.0 °F 31.6 °F 30.2 °F 65% 30.21 in 6.2 mi WNW 20.7 mph 35.7 mph N/A   Mostly Cloudy
2:25 PM 42.8 °F 34.3 °F 30.2 °F 61% 30.24 in 6.2 mi WNW 19.6 mph - N/A   Mostly Cloudy
2:48 PM 41.0 °F 32.2 °F 30.2 °F 65% 30.24 in 6.2 mi WNW 18.4 mph 32.2 mph N/A Rain Light Drizzle
2:55 PM 41.0 °F 32.5 °F 30.2 °F 65% 30.24 in 6.2 mi WNW 17.3 mph 29.9 mph N/A   Drizzle
3:25 PM 41.0 °F 32.5 °F 30.2 °F 65% 30.24 in 6.2 mi WNW 17.3 mph 29.9 mph N/A   Mostly Cloudy
3:55 PM 41.0 °F 32.5 °F 30.2 °F 65% 30.24 in 6.2 mi WNW 17.3 mph 32.2 mph N/A   Mostly Cloudy
4:25 PM 41.0 °F 32.2 °F 28.4 °F 61% 30.24 in 6.2 mi WNW 18.4 mph 29.9 mph N/A   Partly Cloudy
4:55 PM 41.0 °F 32.5 °F 28.4 °F 61% 30.27 in 6.2 mi WNW 17.3 mph - N/A   Mostly Cloudy
5:25 PM 41.0 °F 32.8 °F 30.2 °F 65% 30.27 in 6.2 mi WNW 16.1 mph - N/A   Overcast
5:55 PM 41.0 °F 33.1 °F 30.2 °F 65% 30.27 in 6.2 mi WNW 15.0 mph - N/A   Mostly Cloudy
6:25 PM 41.0 °F 32.5 °F 30.2 °F 65% 30.27 in 6.2 mi WNW 17.3 mph - N/A   Overcast
6:55 PM 41.0 °F 33.9 °F 28.4 °F 61% 30.27 in 6.2 mi WNW 12.7 mph - N/A   Overcast
7:25 PM 41.0 °F 33.9 °F 28.4 °F 61% 30.27 in 6.2 mi WNW 12.7 mph - N/A   Overcast
7:55 PM 41.0 °F 33.9 °F 30.2 °F 65% 30.30 in 6.2 mi WNW 12.7 mph - N/A   Overcast
8:25 PM 41.0 °F 33.9 °F 30.2 °F 65% 30.30 in 6.2 mi WNW 12.7 mph - N/A   Mostly Cloudy
8:55 PM 41.0 °F 33.9 °F 30.2 °F 65% 30.30 in 6.2 mi WNW 12.7 mph - N/A   Partly Cloudy
9:25 PM 41.0 °F 33.9 °F 32.0 °F 70% 30.30 in 6.2 mi West 12.7 mph - N/A   Mostly Cloudy
9:55 PM 39.2 °F 32.0 °F 32.0 °F 75% 30.30 in 6.2 mi West 11.5 mph - N/A   Overcast
10:25 PM 39.2 °F 32.0 °F 30.2 °F 70% 30.30 in 6.2 mi West 11.5 mph - N/A   Overcast
10:55 PM 39.2 °F 31.6 °F 30.2 °F 70% 30.30 in 6.2 mi West 12.7 mph - N/A   Overcast
11:25 PM 39.2 °F 31.6 °F 30.2 °F 70% 30.30 in 6.2 mi West 12.7 mph - N/A   Overcast
11:55 PM 39.2 °F 32.0 °F 30.2 °F 70% 30.33 in 6.2 mi West 11.5 mph - N/A   Overcast